sat.trackr.live / text

‹ back to catalog

STARLINK-32910

NORAD 63089 · 2025-037N

PAYLOAD ACTIVE UNKNOWN

§ Identity

Operator
Country
US
Launch date
2025-02-23
Launch site
AFWTR
Launch vehicle
Mass (kg)
RCS (m²)

Purposes: comms

External: N2YO · Heavens-Above · Gunter

§ Orbital elements

Epoch: 2026-09-20T07:30:28.580256Z

Period
94.14 min
Inclination
70.0014°
Eccentricity
0.0002916
Mean motion
15.29616515 rev/d
Perigee alt
475.0 km
Apogee alt
479.0 km
Semi-major
6,855.1 km
B*
4.5325e-4
RAAN
221.3894°
Arg perigee
274.7764°
Mean anomaly
85.3078°
Rev number
8,781

§ Raw data

STARLINK-329101 63089U 25037N   26263.31283079  .00012938  00000+0  45325-3 0  99992 63089  70.0014 221.3894 0002916 274.7764  85.3078 15.29616515 87810

JSON: /api/v1/satellites/63089 · /tle

For live sub-satellite position, see the globe view (requires WebGL).

§ Visibility from observer

Set your observer location to see the next 7 days of passes ≥ 10°. The values pass through the URL so the page stays shareable.

No JS? Fill the form by hand. The geolocation button needs JavaScript.